DW8785 Weather Reports


time (UTC)temp
C
wind
direction
speed
KPH
gust
KPH
rain 1hr
cm
rain 24hr
cm
rain mn
cm
humidity
%
barometer
mb
20260506061524 11 141 0.0 0.0 0.00 0.00 4.90 100 1007.6
20260506044556 10 181 0.0 0.0 0.00 0.00 4.83 100 1008.5
20260506043054 10 182 0.0 0.0 0.00 0.00 4.78 100 1008.6
20260506041559 10 179 3.2 0.0 0.00 0.00 4.60 100 1008.4
20260506040044 10 182 9.7 0.0 0.00 0.00 4.19 100 1008.4
20260506034549 10 343 6.4 0.0 0.00 0.00 3.58 100 1008.1
20260506033031 10 282 6.4 0.0 0.00 0.00 3.35 100 1008.2
20260506031527 9 284 12.9 0.0 0.00 0.00 2.82 100 1008.4
20260506030026 9 292 9.7 0.0 0.00 0.00 2.18 100 1008.5
20260506024519 9 312 0.0 0.0 0.00 0.00 1.60 100 1008.2
20260506023013 9 349 0.0 0.0 0.00 0.00 1.52 100 1008.0
20260506021510 9 349 1.6 0.0 0.00 0.00 1.52 100 1008.2
20260506020004 9 295 8.0 0.0 0.00 0.00 1.50 100 1008.8
20260506014601 10 275 11.3 0.0 0.00 0.00 1.35 100 1008.9
20260506013103 10 295 30.6 0.0 0.00 0.00 1.14 100 1008.9
20260506011554 11 280 16.1 0.0 0.00 0.00 0.38 98 1008.3
20260506010049 11 344 14.5 0.0 0.00 0.00 0.38 97 1008.5
20260506004544 11 349 9.7 0.0 0.00 0.00 0.38 97 1008.8
20260506003041 11 347 19.3 0.0 0.00 0.00 0.38 92 1008.7
20260506001537 11 271 19.3 0.0 0.00 0.00 0.33 94 1009.1
20260506000031 11 304 22.5 0.0 0.00 0.00 0.15 100 1009.1
20260505234527 11 344 20.9 0.0 0.00 0.00 0.05 99 1009.1
20260505233027 11 192 20.9 0.0 0.00 0.00 0.03 98 1009.2
20260505231520 12 191 20.9 0.0 0.00 0.00 0.00 98 1009.2
20260505230013 12 281 20.9 0.0 0.00 0.00 0.00 98 1009.7
20260505224512 12 349 19.3 0.0 0.00 0.00 0.00 99 1009.8
20260505223004 11 350 17.7 0.0 0.00 0.00 0.00 98 1009.9
20260505221604 11 195 19.3 0.0 0.00 0.00 0.00 98 1010.0
20260505214552 11 350 19.3 0.0 0.00 0.00 1.17 96 1010.4
20260505213048 11 281 20.9 0.0 0.00 0.00 1.17 96 1010.5
20260505211557 12 278 17.7 0.0 0.00 0.00 1.17 95 1010.5
20260505210040 12 353 17.7 0.0 0.00 0.00 1.17 94 1010.7
20260505204538 12 356 24.1 0.0 0.00 0.00 1.17 94 1010.6
20260505203033 12 202 14.5 0.0 0.00 0.00 1.14 95 1010.4
20260505201530 12 353 19.3 0.0 0.00 0.00 1.14 92 1010.4
20260505200035 12 353 20.9 0.0 0.00 0.00 1.14 95 1010.4
20260505194521 12 357 20.9 0.0 0.00 0.00 1.14 93 1010.3
20260505193018 12 354 22.5 0.0 0.00 0.00 1.12 90 1010.1
20260505191524 12 354 24.1 0.0 0.00 0.00 1.12 89 1009.8
20260505190009 12 356 25.7 0.0 0.00 0.00 1.12 88 1009.8
20260505184506 12 357 17.7 0.0 0.00 0.00 1.12 88 1010.0
20260505183002 12 354 19.3 0.0 0.00 0.00 1.12 88 1009.6
20260505181559 12 353 25.7 0.0 0.00 0.00 1.12 90 1009.6
20260505180053 12 353 22.5 0.0 0.00 0.00 1.12 89 1009.8
20260505174549 12 285 17.7 0.0 0.00 0.00 1.12 91 1010.0
20260505173045 12 191 19.3 0.0 0.00 0.00 1.12 91 1009.9
20260505171541 12 313 29.0 0.0 0.00 0.00 1.12 90 1009.8
20260505170035 12 354 29.0 0.0 0.00 0.00 1.07 92 1009.9
20260505164531 13 356 27.4 0.0 0.00 0.00 0.97 86 1009.4
20260505163027 14 267 20.9 0.0 0.00 0.00 0.91 81 1009.3
20260505161536 15 292 12.9 0.0 0.00 0.00 0.91 81 1009.4
20260505153013 15 354 20.9 0.0 0.00 0.00 0.91 79 1009.3
20260505151504 15 289 20.9 0.0 0.00 0.00 0.91 84 1009.4
20260505150108 14 356 20.9 0.0 0.00 0.00 0.91 84 1009.5
20260505124520 13 198 19.3 0.0 0.00 0.00 0.91 92 1010.1
20260505123014 13 350 19.3 0.0 0.00 0.00 0.91 92 1010.4
20260505121526 13 349 22.5 0.0 0.00 0.00 0.91 89 1010.3
20260505120006 13 304 24.1 0.0 0.00 0.00 0.89 91 1010.3
20260505114601 13 325 25.7 0.0 0.00 0.00 0.89 92 1010.3
20260505113112 12 347 20.9 0.0 0.00 0.00 0.89 94 1010.4
20260505111552 12 274 20.9 0.0 0.00 0.00 0.86 95 1010.4
20260505101543 12 230 19.3 0.0 0.00 0.00 0.71 97 1010.6
20260505100034 12 347 19.3 0.0 0.00 0.00 0.71 98 1010.5
20260505094527 12 196 19.3 0.0 0.00 0.00 0.71 98 1010.7
20260505093023 12 188 20.9 0.0 0.00 0.00 0.71 99 1010.6
20260505091519 11 198 19.3 0.0 0.00 0.00 0.71 99 1010.7
20260505090033 11 191 19.3 0.0 0.00 0.00 0.71 100 1010.3
20260505084508 11 209 12.9 0.0 0.00 0.00 0.71 100 1010.6
20260505083005 11 189 19.3 0.0 0.00 0.00 0.71 100 1010.5
20260505081602 11 347 22.5 0.0 0.00 0.00 0.71 100 1010.2
20260505080056 10 188 14.5 0.0 0.00 0.00 0.71 100 1010.1
20260505074552 10 318 19.3 0.0 0.00 0.00 0.71 100 1010.6
20260505073048 10 349 16.1 0.0 0.00 0.00 0.71 100 1010.6
20260505071549 10 206 11.3 0.0 0.00 0.00 0.71 100 1010.6